Hourly Data Report for October 28, 2013

All times are specified in Local Standard Time (LST). Add 1 hour to adjust for Daylight Saving Time where and when it is observed.

QIKIQTARJUAQ A
NUNAVUT

67°32'48.000" N
64°01'54.000" W
5.50 m
2400577
YVM

Download Data

Hourly Data (October 2013)
Hourly Data Report for October 28, 2013
Temp Definition
°C
Dew Point Temp Definition
°C
Rel Hum Definition
%
Wind Dir Definition
10's deg

Wind Spd Definition
km/h
Visibility Definition
km
Stn Press Definition
kPa
Hmdx Definition


Wind Chill Definition


Weather Definition


TIME
00:00 Legend Double Dagger -7.1 -12.5 66 19 15 16.1 100.28   -13 LegendNANA
01:00 Legend Double Dagger -7.0 -12.3 66 15 5 16.1 100.29   -10 LegendNANA
02:00 Legend Double Dagger -6.6 -11.2 70 LegendMM 4 16.1 100.28   -9 LegendNANA
03:00 Legend Double Dagger -7.7 -11.5 74 18 17 16.1 100.27   -14 LegendNANA
04:00 Legend Double Dagger -5.7 -10.0 72 19 21 16.1 100.26   -13 LegendNANA
05:00 Legend Double Dagger -4.9 -9.4 71 19 18 16.1 100.27   -11 LegendNANA
06:00 Legend Double Dagger -4.8 -9.3 71 LegendMM 4 16.1 100.26   -7 LegendNANA
07:00 Legend Double Dagger -5.0 -9.1 73   0 16.1 100.26     LegendNANA
08:00 Legend Double Dagger -4.6 -8.6 74 20 8 16.1 100.27   -8 LegendNANA
09:00 Legend Double Dagger -5.3 -9.2 74 18 13 16.1 100.25   -10 LegendNANA
10:00 Legend Double Dagger -5.4 -9.5 73 18 15 16.1 100.23   -11 LegendNANA
11:00 Legend Double Dagger -5.5 -10.1 70 17 22 16.1 100.20   -13 LegendNANA
12:00 Legend Double Dagger -5.3 -10.1 69 18 22 16.1 100.20   -12 LegendNANA
13:00 Legend Double Dagger -6.0 -10.6 70 17 11 16.1 100.21   -11 LegendNANA
14:00 Legend Double Dagger -6.7 -12.0 66 14 4 16.1 100.23   -9 LegendNANA
15:00 Legend Double Dagger -8.4 -12.2 74 LegendMM 4 9.7 100.23   -11 LegendNANA
16:00 Legend Double Dagger -7.6 -12.4 69 17 8 16.1 100.22   -12 LegendNANA
17:00 Legend Double Dagger -7.5 -12.6 67 16 8 16.1 100.23   -12 LegendNANA
18:00 Legend Double Dagger -7.4 -12.5 67 15 8 16.1 100.24   -11 LegendNANA
19:00 Legend Double Dagger -6.4 -10.8 71 19 18 16.1 100.23   -13 LegendNANA
20:00 Legend Double Dagger -6.2 -10.4 72 18 11 16.1 100.23   -11 LegendNANA
21:00 Legend Double Dagger -7.0 -11.1 73 17 5 16.1 100.21   -10 LegendNANA
22:00 Legend Double Dagger -7.5 -10.9 77 20 18 16.1 100.19   -14 LegendNANA
23:00 Legend Double Dagger -8.8 -12.0 78 18 8 16.1 100.19   -13 LegendNANA

Notes on Data Quality.

Legend

  • E = Estimated
  • M = Missing
  • NA = Not Available
  • ‡ = Partner data that is not subject to review by the National Climate Archives
Date modified: